Flag for Benin Weather past 2 weeks in Porto Novo, Benin

Now
82 °F

Passing clouds.


Feels Like: 91 °F
Forecast: 81 / 91 °F
Wind: 17 mph from Southwest

Location: Cotonou Airport

Current Time: Mar 29, 2015 at 5:43:20 AM

Latest Report: Mar 29, 2015 at 5:00 AM


Visibility: N/A

Pressure: 29.77 "Hg

Humidity: 84%

Dew point: 77 °F

Location of Porto NovoLocation

Historic Weather in Porto Novo — Graph

°F

Porto Novo temperature yesterday

Maximum temperature yesterday: 90 °F (at 1:00 PM)
Minimum temperature yesterday: 81 °F (at 6:00 AM)
Average temperature yesterday: 84 °F

Past Weeks' High & Low Weather Summary

 TemperatureHumidityPressure
High91 °F (Mar 20, 2:00 PM)100% (Mar 22, 6:00 PM)29.92 "Hg (Mar 22, 6:00 PM)
Low73 °F (Mar 21, 9:00 PM)59% (Mar 18, 1:00 PM)29.65 "Hg (Mar 14, 5:00 PM)
Average84 °F80%29.78 "Hg
* Reported Mar 14 4:00 AM — Mar 29 4:00 AM, Porto Novo, Weather by CustomWeather, © 2015

Note: Actual official high and low records may vary slightly from our data, if they occured in-between our weather recording intervals... More about our weather records

Advertising

Porto Novo weather history for previous 24 hours

 ConditionsComfort  
Time TempWeatherWind HumidityBarometerVisibility
4:00 AM
Sun, Mar 29
81 °FThunderstorms. Passing clouds.13 mph84%29.80 "HgN/A
3:00 AM81 °FThunderstorms. Passing clouds.15 mph74%29.80 "HgN/A
1:00 AM82 °FThunderstorms. Passing clouds.17 mph84%29.86 "HgN/A
12:00 AM82 °FPassing clouds.16 mph84%29.86 "HgN/A
11:00 PM
Sat, Mar 28
82 °FPassing clouds.16 mph89%29.89 "HgN/A
10:00 PM82 °FPassing clouds.15 mph89%29.86 "HgN/A
9:00 PM84 °FPassing clouds.15 mph84%29.86 "HgN/A
8:00 PM84 °FPassing clouds.14 mph84%29.83 "HgN/A
7:00 PM84 °FPassing clouds.14 mph84%29.83 "HgN/A
6:00 PM84 °FWarm.13 mph84%29.80 "HgN/A
5:00 PM86 °FScattered clouds.13 mph79%29.77 "HgN/A
4:00 PM88 °FScattered clouds.13 mph75%29.77 "HgN/A
3:00 PM88 °FScattered clouds.15 mph75%29.80 "HgN/A
2:00 PM88 °FScattered clouds.15 mph75%29.83 "HgN/A
1:00 PM90 °FScattered clouds.13 mph71%29.89 "HgN/A
10:00 AM88 °FScattered clouds.10 mph75%29.92 "Hg5 mi
9:00 AM84 °FScattered clouds.7 mph79%29.89 "Hg5 mi
8:00 AM81 °FScattered clouds.7 mph89%29.86 "Hg5 mi
7:00 AM82 °FScattered clouds.12 mph84%29.83 "Hg5 mi
6:00 AM81 °FPassing clouds.5 mph89%29.83 "Hg5 mi
5:00 AM82 °FPassing clouds.12 mph84%29.83 "Hg5 mi
Weather by CustomWeather, © 2015

See weather overviewHow to use our weather pages